CDT,Max TemperatureF,Mean TemperatureF,Min TemperatureF,Max Dew PointF,MeanDew PointF,Min DewpointF,Max Humidity, Mean Humidity, Min Humidity, Max Sea Level PressureIn, Mean Sea Level PressureIn, Min Sea Level PressureIn, Max VisibilityMiles, Mean VisibilityMiles, Min VisibilityMiles, Max Wind SpeedMPH, Mean Wind SpeedMPH, Max Gust SpeedMPH,PrecipitationIn, CloudCover, Events, WindDirDegrees
2013-10-1,84,76,69,75,73,70,100,84,66,30.11,30.07,30.02,10,10,7,9,2,,0.00,4,,187
2013-10-2,84,78,73,79,73,70,100,79,62,30.14,30.09,30.05,10,8,1,12,1,,0.00,6,,230
2013-10-3,84,78,71,77,69,64,100,71,51,30.11,30.06,30.01,10,8,0,12,2,,0.00,0,,183
2013-10-4,86,78,71,79,74,72,100,88,66,30.12,30.07,30.04,10,10,9,9,2,,0.00,3,,177
2013-10-5,89,81,73,81,75,72,100,83,55,30.07,30.02,29.92,10,10,5,13,3,,0.00,1,,177
2013-10-6,75,66,57,75,71,57,100,100,94,29.96,29.89,29.85,10,9,2,10,6,,0.00,6,,216
2013-10-7,68,58,48,57,52,48,100,77,56,30.10,30.02,29.93,10,9,0,9,2,,0.00,1,,2
2013-10-8,73,62,51,61,54,48,100,73,46,30.14,30.10,30.07,10,10,9,13,2,,0.00,1,,43
2013-10-9,78,69,60,70,64,61,100,77,57,30.18,30.13,30.10,10,10,8,8,1,,0.00,3,,191
2013-10-10,80,73,66,72,64,59,100,69,51,30.16,30.09,30.04,10,9,3,6,1,,0.00,4,,30
2013-10-11,80,72,62,72,63,59,100,68,48,30.10,30.04,30.00,10,7,0,5,0,,0.00,3,,15
2013-10-12,80,73,66,73,67,64,100,75,58,30.12,30.07,30.03,10,7,1,9,1,,0.00,1,,274
2013-10-13,80,73,62,75,68,63,100,82,54,30.24,30.19,30.13,10,8,0,9,2,,0.00,4,,14
2013-10-14,80,73,64,72,66,61,100,78,51,30.23,30.16,30.09,10,8,0,8,1,,0.00,2,,62
2013-10-15,75,70,66,70,68,66,100,91,73,30.11,30.05,29.99,10,10,6,12,3,,0.00,2,,173
2013-10-16,66,,66,66,66,66,100,100,100,30.00,29.96,29.91,10,7,1,8,3,,0.00,7,,174
2013-10-17,66,60,55,63,58,54,100,91,68,30.01,29.96,29.90,10,8,0,7,2,,0.00,6,,345
2013-10-18,66,60,53,61,51,46,100,72,49,30.09,30.02,29.97,10,6,0,5,1,,0.00,3,,125
2013-10-19,60,51,42,61,52,43,100,96,77,30.07,29.99,29.91,10,9,0,9,2,,0.00,4,,278
2013-10-20,64,55,46,54,41,36,100,58,34,30.11,30.06,30.01,10,6,0,6,1,,0.00,3,,165
2013-10-21,71,60,50,57,50,43,100,65,38,30.08,30.03,29.98,10,10,1,9,2,,0.00,1,,207
2013-10-22,64,56,48,57,52,46,100,84,59,30.05,29.97,29.88,10,10,9,8,3,,0.00,5,,6
2013-10-23,53,45,37,52,42,36,100,83,51,30.10,30.03,29.87,10,10,6,13,5,,0.00,3,,300
2013-10-24,57,47,37,52,43,37,100,79,58,30.34,30.19,30.10,10,10,8,9,2,,0.00,6,,326
2013-10-25,51,40,28,36,30,25,100,76,37,30.49,30.40,30.32,10,10,7,8,1,,0.00,0,,28
2013-10-26,60,48,35,46,38,32,100,54,34,30.31,30.20,30.09,10,9,0,15,3,,0.00,4,,217
2013-10-27,66,58,51,64,58,46,100,96,72,30.12,30.08,30.04,10,10,7,10,2,,0.00,8,,205
2013-10-28,64,60,57,64,62,57,100,100,100,30.25,30.18,30.08,10,9,0,8,3,,0.00,8,,211
2013-10-29,73,70,64,72,67,64,100,89,73,30.28,30.21,30.16,10,7,0,12,2,,0.00,4,,195
2013-10-30,77,70,64,72,64,59,100,85,57,30.23,30.15,30.06,10,10,9,14,6,,0.00,3,,197
2013-10-31,69,66,62,70,66,63,100,95,83,30.04,29.81,29.59,10,9,2,33,12,45,0.00,6,,183